Location: Luz Observatory
(34.5000°N, 117.2833°W)
Time: 22:26:08
(UTC-07:00)

Daily predictions for brighter satellites

Satellite Brightness Start Highest point End
(mag) Time Altitude Azimuth Time Altitude Azimuth Time Altitude Azimuth
GPS 2-05 Rocket1 2.9 19:51:55 10° W 19:55:21 72° N 19:58:41 10° E
Cosmos 2263 Rocket 3.6 19:56:56 10° N 20:01:17 22° ENE 20:05:35 10° ESE
Cosmos 2322 Rocket 2.3 19:56:20 10° S 20:01:53 58° ESE 20:07:28 10° NNE
FREGAT/IRIS 3.9 19:59:38 10° S 20:02:31 44° W 20:05:27 10° NNW
Uosat 12 SS-18 rocket 4.3 19:58:03 10° SSW 20:02:37 79° ESE 20:08:10 10° NNE
Cosmos 676 Rocket 4.0 19:57:21 10° NNW 20:02:40 72° ENE 20:07:58 10° SSE
SJ-6B 3.1 19:59:54 10° S 20:03:56 80° WSW 20:08:04 10° NNW
Meteor 1-11 Rocket 4.1 19:59:11 10° SSE 20:04:40 43° E 20:10:03 10° NNE
Cosmos 1140 Rocket 3.7 20:01:14 10° N 20:06:21 52° ENE 20:11:26 10° SSE
Cosmos 1441 Rocket 3.9 20:03:09 10° NNW 20:06:49 55° W 20:10:29 10° S
Cosmos 614 Rocket 4.4 20:02:21 10° N 20:07:15 44° ENE 20:12:08 10° SE
NOSS 2-3 (C) 3.8 20:02:52 10° SSW 20:07:22 63° ESE 20:12:25 10° NE
Resurs 01 Rocket 1.9 20:04:23 10° SSE 20:08:38 48° ENE 20:12:56 10° N
Cosmos 1975 Rocket 3.4 20:04:13 10° NNW 20:08:39 70° W 20:13:02 10° S
Spot 2 Rocket 3.9 20:05:07 10° SE 20:09:57 45° ENE 20:14:47 10° N
S3M 4.3 20:06:31 10° N 20:12:35 49° E 20:18:41 10° SSE
Cosmos 1553 Rocket 4.1 20:07:43 10° N 20:13:42 53° E 20:19:35 10° SSE
SL-16 R/B 2.1 20:08:28 10° SSW 20:14:06 75° ESE 20:19:46 10° NNE
Cosmos 2151 Rocket 3.5 20:10:36 10° S 20:14:56 65° E 20:19:18 10° NNE
Cosmos 44 Rocket 3.4 20:14:57 10° NNW 20:19:43 75° WSW 20:24:32 10° SSE
Cosmos 1954 Rocket 4.1 20:17:24 10° NNW 20:22:45 90° WSW 20:28:04 10° SSE
DELTA 2 R/B (1) 3.7 20:21:03 10° WNW 20:26:38 72° SSW 20:30:55 17° SE
Okean 1 4.2 20:25:59 10° NNW 20:29:51 50° W 20:33:42 10° S
OAO 1 Rocket 4.4 20:26:26 10° WSW 20:31:47 81° SSE 20:36:15 15° E
Cosmos 1939 Rocket 3.5 20:29:48 19° SE 20:32:07 35° ENE 20:35:43 10° N
Cosmos 1536 3.0 20:28:30 10° S 20:32:27 52° E 20:36:25 10° NNE
Cosmos 1536 Rocket 3.5 20:28:42 10° N 20:32:59 60° E 20:37:02 11° SSE
Cosmos 2360 Rocket 2.5 20:29:20 10° S 20:34:34 41° ESE 20:39:47 10° NE
Lacrosse 5 rocket 1.9 20:32:17 10° NW 20:35:52 47° SW 20:38:56 14° SSE
Meteor 1-19 Rocket 4.2 20:30:16 10° N 20:36:09 78° E 20:41:53 10° SSE
COSMOS 2428 4.2 20:37:40 17° E 20:37:40 17° E 20:40:28 10° ENE
ATLAS 3B R/B 4.0 20:32:29 10° N 20:37:40 23° NE 20:41:11 15° E
Envisat 3.0 20:34:08 10° SSE 20:39:10 69° ENE 20:44:13 10° N
Cosmos 1741 Rocket 4.1 20:36:15 10° N 20:41:26 57° ENE 20:44:56 20° SE
USA 267 3.5 20:39:14 13° SSE 20:45:08 66° SW 20:51:40 10° NW
CZ-2D R/B 4.3 20:42:35 10° S 20:46:17 44° W 20:50:00 10° NNW
Meteor 1-5 Rocket 4.0 20:43:20 10° S 20:48:36 61° E 20:53:48 10° NNE
H-2A R/B 4.1 20:49:01 10° ENE 20:49:07 10° ENE 20:49:42 10° ENE
USA 186 3.2 20:54:33 10° S 20:57:42 39° W 21:00:54 10° NNW
FALCON 9 R/B 4.4 21:06:24 14° E 21:06:24 14° E 21:09:16 10° E
Cosmos 482 Debris 4.1 20:55:11 10° SW 21:00:16 60° SE 21:01:00 47° E
Meteor 2-4 Rocket 3.7 20:57:10 10° N 21:02:47 88° W 21:07:27 16° S
Delta 2 Rocket 3.3 21:00:18 10° WSW 21:04:20 89° SSE 21:05:56 39° E
Cosmos 1110 Rocket 3.8 21:02:58 10° SSW 21:08:06 80° ESE 21:13:18 10° NNE
Helios 1B rocket 2.3 21:04:42 10° NNE 21:08:48 70° ESE 21:10:18 37° S
Meteosat 1 Rocket2 4.2 21:04:37 10° WSW 21:09:33 47° S 21:11:47 35° SE
SPOT 5 4.4 21:12:51 20° ENE 21:12:51 20° ENE 21:15:44 10° NNE
ATLAS 2AS CENTAUR R/B 3.4 21:05:48 10° SW 21:13:20 66° WNW 21:21:24 10° NNE
Lacrosse 5 3.2 21:11:22 10° WSW 21:16:08 40° NW 21:20:56 10° NNE
Cosmos 1331 Rocket 3.9 21:15:54 10° SSW 21:21:04 87° WNW 21:26:19 10° NNE
Cosmos 883 Rocket 4.5 21:20:54 10° N 21:27:03 79° W 21:30:38 27° S
SeaSat 1 4.0 21:23:54 10° N 21:28:23 36° WNW 21:32:50 10° SW
Okean 1 Rocket 4.1 21:25:59 10° SSW 21:30:07 44° W 21:34:18 10° N
Tiangong 1 3.2 21:27:26 10° NW 21:28:44 23° NW 21:28:44 23° NW
YAOGAN 6 3.3 21:31:07 48° WSW 21:31:13 48° W 21:34:39 10° NNW
ARGOS 3.5 21:31:25 44° ENE 21:31:26 44° ENE 21:36:29 10° N
Atlas Centaur 2 3.1 21:24:30 10° W 21:32:19 49° SSW 21:34:07 41° SSE
GPS 2-05 Rocket1 4.3 21:29:45 10° W 21:31:45 31° W 21:31:45 31° W
Cosmos 220 Rocket 4.0 21:29:21 10° NNW 21:33:39 73° WSW 21:33:55 70° SW
Cosmos 1244 Rocket 4.3 21:34:04 42° S 21:36:18 77° E 21:42:26 10° N
Cosmos 1025 Rocket 3.0 21:32:53 10° N 21:37:03 78° WNW 21:37:03 78° WNW
Okean 2 3.6 21:33:36 10° N 21:37:03 62° N 21:37:03 62° N
Cosmos 1607 4.1 21:38:26 10° NW 21:44:52 69° WSW 21:46:36 49° S
Resurs 01 Rocket 4.5 21:43:27 10° WSW 21:45:20 12° W 21:47:13 10° WNW
Cosmos 2263 Rocket 3.0 21:40:00 10° NW 21:45:23 46° WSW 21:47:25 33° SSW
Okean 1-7 Rocket 3.9 21:43:24 10° NNW 21:47:52 63° W 21:47:54 63° W
Cosmos 2278 Rocket 4.3 21:46:12 10° NNE 21:48:29 14° NE 21:48:29 14° NE
Cosmos 1818 3.6 21:50:30 66° NE 21:50:30 66° NE 21:55:10 10° NNE
Cosmos 2237 4.5 21:46:49 10° SSW 21:52:27 66° WNW 21:58:08 10° NNE
Cosmos 1844 Rocket 3.5 21:47:13 10° N 21:51:49 37° NE 21:51:49 37° NE
SL-08 R/B 4.4 21:53:33 67° E 21:53:35 67° E 21:59:52 10° NNE
Terra 4.0 21:55:49 14° NE 21:55:49 14° NE 21:56:59 10° NNE
Helios 1A 4.3 21:54:42 33° WSW 21:55:07 34° W 21:58:59 10° NNW
MetOp-B 4.1 22:00:52 80° WNW 22:00:52 80° WNW 22:06:07 10° NNW
Cosmos 2219 Rocket 3.5 22:06:05 28° NE 22:06:05 28° NE 22:08:41 10° NNE
ERS-1 Rocket 3.4 22:06:41 56° W 22:06:41 56° W 22:11:27 10° NNW
Meteor 1-12 Rocket 4.3 22:09:22 75° NNW 22:09:22 75° NNW 22:14:37 10° N
NOSS 3-2 (A) 4.4 22:05:03 10° NNW 22:12:24 48° NE 22:13:01 47° ENE
USA 238 DEB 3.6 22:07:27 10° NNW 22:14:36 85° ENE 22:14:51 83° ESE
USA 238 3.6 22:07:33 10° NNW 22:14:43 84° ENE 22:14:56 82° ESE
Cosmos 2360 Rocket 4.3 22:14:10 10° WSW 22:18:39 24° WNW 22:23:09 10° N
COSMOS 2428 3.3 22:19:31 47° WSW 22:20:36 54° WNW 22:26:13 10° NNE
H-2A R/B 3.1 22:29:40 41° NNW 22:29:40 41° NNW 22:32:52 10° NNW
ATLAS 3B R/B 2.8 22:22:17 10° NW 22:28:26 63° W 22:28:26 63° W
Cosmos 1745 Rocket 4.2 22:30:27 64° NNW 22:30:27 64° NNW 22:35:42 10° N
Intelsat 5-1 Rocket 4.5 22:18:24 10° W 22:31:54 40° SSW 22:31:54 40° SSW
Cosmos 2333 Rocket 3.8 22:36:58 27° NNE 22:36:58 27° NNE 22:39:23 10° NNE
Cosmos 2237 Rocket 4.3 22:54:11 18° NNE 22:54:11 18° NNE 22:55:36 10° NNE
NOSS 3-2 (C) 4.2 22:44:01 10° NNW 22:50:54 61° NNE 22:50:54 61° NNE
CENTAUR R/B 3.9 23:11:03 10° NNW 23:17:39 40° NE 23:17:39 40° NE
Cosmos 2278 Rocket 4.2 23:28:06 10° NNW 23:30:19 25° NNW 23:30:19 25° NNW
